Regional Weather Roundup
Issued by NWS Charleston, SC

Current Version | Previous Version | Graphics & Text | Print | Product List | Glossary On
Versions: 1 2 3 4 5 6 7 8 9 10 11 12 13 14 15 16 17 18 19 20 21 22 23 24 25 26 27 28 29 30 31 32 33 34 35 36 37 38 39 40 41 42 43 44 45 46 47 48 49 50
000
ASUS42 KCHS 311610
RWRCHS
REGIONAL WEATHER ROUNDUP
NATIONAL WEATHER SERVICE CHARLESTON SC
1200 PM EDT FRI OCT 31 2014

NOTE: "FAIR" INDICATES FEW OR NO CLOUDS BELOW 12,000 FEET WITH NO
SIGNIFICANT WEATHER AND/OR OBSTRUCTIONS TO VISIBILITY.

NOT ALL STATIONS ARE QUALITY CONTROLLED BY THE NATIONAL
WEATHER SERVICE. USE DATA WITH CAUTION...ESPECIALLY
DEWPOINT OBSERVATIONS.

SCZ027-030-031-034>040-042>050-311700-
...SOUTH CAROLINA...

CITY           SKY/WX    TMP DP  RH WIND       PRES   REMARKS
N CHARLESTON   MOSUNNY   69  43  38 NE10      29.88F
WATERFRONT PRK   N/A     64 N/A N/A NE12G17     N/A
FORT JOHNSON   NOT AVBL
JOHNS ISLAND   SUNNY     66  48  52 NE10G16   29.88F
PINOPOLIS      NOT AVBL
MONCKS CORNER  FAIR      66  50  55 E5        29.88F
SUMMERVILLE    FAIR      66  46  48 N7        29.89F
BEAUFORT MCAS  MOSUNNY   70  52  52 NE7       29.88F
BEAUFORT ARPT  FAIR      68  50  52 NE7       29.87F
HILTON HEAD IS SUNNY     70  50  49 NE8       29.89F
GEORGETOWN     NOT AVBL
WALTERBORO     SUNNY     68  43  40 NE6       29.90F
ORANGEBURG     SUNNY     63  48  58 E6        29.91F
BARNWELL       FAIR      66  48  52 SE5       29.90F
AIKEN          FAIR      64  50  59 S3        29.92F
MANNING        FAIR      64  48  55 NE6       29.90F
KINGSTREE      NOT AVBL
COLUMBIA       PTSUNNY   63  47  55 NE5       29.91F
SUMTER         SUNNY     62  49  62 VRB2      29.89F
FLORENCE       MOSUNNY   62  46  55 E5        29.90F
MYRTLE BEACH   MOSUNNY   64  46  52 N12       29.89F
N MYRTLE BEACH SUNNY     65  46  50 NE13      29.88F

$$

GAZ063-065-086>088-099>101-113>116-118-119-134-136>141-150-311700-
...GEORGIA...

CITY           SKY/WX    TMP DP  RH WIND       PRES   REMARKS
SAVANNAH ARPT  MOSUNNY   71  45  39 NE6       29.88F
HUNTER AAF     SUNNY     71  49  46 NW7       29.86F
FORT STEWART   SUNNY     69  47  46 VRB2      29.87F
STATESBORO     NOT AVBL
SYLVANIA       SUNNY     72  58  62 E3        29.90F
CLAXTON        FAIR      70  55  60 CALM      29.90F
THOMSON        SUNNY     65  56  72 CALM      29.95F
AUGUSTA-BUSH   SUNNY     64  50  60 SE7       29.90F
AUGUSTA-DANIEL SUNNY     63  48  58 S3        29.91F
SWAINSBORO     FAIR      68  54  60 MISG      29.91F
VIDALIA        SUNNY     66  54  63 S3        29.91F
ALMA           SUNNY     67  52  58 CALM      29.90F
WAYCROSS       SUNNY     70  58  65 NW3       29.90F
JESUP          FAIR      72  55  56 E5        29.90F
BRUNSWICK      SUNNY     70  50  49 N6        29.89F
SAINT SIMONS   SUNNY     71  50  47 N8        29.88S

$$

SCZ027-028-034-036>038-045-046-048>050-GAZ119-141-311700-
...LAKE AND SUPPLEMENTAL COASTAL OBSERVATIONS...

STATION/POSITION TIME  TEMP    WIND        PRES    WAVE   SWELL
                       AIR SEA DIR/SP/G            HT/PER HT/PER/DIR
                 (UTC) (F)     (DEG/KT/KT) (MB)    (FT/S) (FT/S/D)
UPR LAKE MARION  NOT AVBL
WINYAH BAY       1500   61      30/  9     1012.0S
LAKE MURRAY      1500   56      30/  2/  3 1012.9F
ACE BASIN NERRS  1500   66      40/  3     1012.0S
FORT PULASKI     1600   67      30/  7/  9 1011.9F
SAPELO ISLAND    NOT AVBL

$$

ANZ835-935-AMZ111-154-330-350-352-354-374-450-454-472-311700-
...C-MAN AND BUOY OBSERVATIONS...

STATION/POSITION TIME  TEMP    WIND        PRES    WAVE   SWELL
                       AIR SEA DIR/SP/G            HT/PER HT/PER/DIR
                 (UTC) (F)     (DEG/KT/KT) (MB)    (FT/S) (FT/S/D)
FOLLY BEACH CMAN 1500   63      30/ 15/ 17 1012.6S
BUOY 41004       1600   67 76   20/ 16/ 23 1010.0F   6/ 7   2/15
BUOY 41008       1600   67 74   10/ 12/ 16 1011.4F   3/ 6   2/ 80/ 6
5E ST. MARYS GA  1600      76                N/A     3/ 6
FRYING PAN BUOY  1600   64 72   40/ 16/ 19 1010.8F   6/ 7
BUOY 41025       1600   65      10/ 23/ 29 1008.2S   7/ 6
CAPE LOOKOUT NC  1500   62      10/ 15/ 20 1010.6F
BUOY 41002       1505   74 78  250/ 12/ 14 1008.4    4/ 7   3/ 90/ 7
BUOY 41010       1600   75 82   80/  2/  4 1009.6F   3/ 8   3/110/ 8
BUOY 41012       NOT AVBL
ST AUGUSTINE FL  1600   70     330/ 12/ 13 1011.7F
CAPERS NEARSHORE 1500   64      50/ 14/ 17   N/A
FRIPP NEARSHORE  NOT AVBL


$$



USA.gov is the U.S. government's official web portal to all federal, state and local government web resources and services.